Preview of NWS' New Version of Forecast
This preview is not operational and should not be used for support decisions.

Terminal Aerodrome Forecast (TAF)

Issued by National Weather Service (NWS)

                            
000
FTUS41 KGYX 230520
TAFRKD
TAF
KRKD 230520Z 2306/2406 28005KT P6SM SCT070
     FM231200 30006KT P6SM FEW250=